Torna al catalogo

FENGYUN 1C DEB

AttivoPO
NORAD 37427·DEBRIS·🇨🇳 China

Lanciato May 10, 1999 da Taiyuan Satellite Launch Center

Loading…

Prossimi Passaggi (prossime 24 ore)

TLE

In scadenzaSource: Space-Track

Epoca: Sep 9, 2026, 17:38 UTC

1 37427U 99025EGV 26252.73479134  .00004729  00000-0  26892-3 0  9995
2 37427  98.6400  69.5176 0169627 126.0229 235.6849 15.02011798643867

Traccia FENGYUN 1C DEB in tempo reale con AllMySat

Download on the App Store